Location: Ermatingen
(47.6706°N, 9.0857°E)
Time: 05:53:46
(UTC+00:00)

ATLAS 3B R/B - Pass Details

Date: 18 September 2020
Orbit: 1016 x 1179 km, 63.8° (Epoch: 04 October)

Event Time Altitude Azimuth Distance (km) Brightness Sun altitude
Rises 21:22:00 0° 319° (NW) 3,833 6.6 -34.8°
Reaches altitude 10° 21:24:36 10° 318° (NW) 2,897 5.7 -35.1°
Enters shadow 21:30:03 58° 296° (WNW) 1,258 3.1 -35.6°
